{"data":{"norad_id":39474,"epoch":"2026-09-16T02:31:32.528640Z","epoch_age_seconds":416807,"freshness":"STALE","line1":"1 39474U 13072N   26259.10523760  .05719028  13935-4  11182-2 0  9990","line2":"2 39474 120.4203 163.2772 0004291 130.2603 229.8898 16.31073759131968","mean_motion":16.31073759,"eccentricity":0.0004291,"inclination_deg":120.4203,"raan_deg":163.2772,"arg_perigee_deg":130.2603,"mean_anomaly_deg":229.8898,"bstar":0.0011182,"rev_number":13196,"period_min":88.285400464223,"perigee_km":186.83752315,"apogee_km":192.47400289923,"semimajor_km":6567.7927630246,"source":"CELESTRAK","updated_at":"2026-09-19T09:00:11.280130Z"}}